Regional Weather Roundup
Issued by NWS Pendleton, OR

Home | Current Version | Previous Version | Text Only | Print | Product List | Glossary On
Versions: 1 2 3 4 5 6 7 8 9 10 11 12 13 14 15 16 17 18 19 20 21 22 23 24 25 26 27 28 29 30 31 32 33 34 35 36 37 38 39 40 41 42 43 44 45 46 47 48 49 50
000
ASUS46 KPDT 162225
RWRPDT
PENDLETON REGIONAL WEATHER ROUNDUP
NATIONAL WEATHER SERVICE PENDLETON OREGON
200 PM PST MON JAN 16 2017

NOTE: FAIR INDICATES FEW OR NO CLOUDS BELOW 12,000 FEET WITH NO
SIGNIFICANT WEATHER AND/OR OBSTRUCTIONS TO VISIBILITY.

# INDICATES UNOFFICIAL STATION AND DATA

WAZ520-162310-
EAST SLOPES OF WASHINGTON CASCADES

CITY            SKY/WX      TMP DP  RH  WIND    PRES   REMARKS
#CLE ELUM HS    N/A         18  10  70  SE1     30.20F
#CLE ELUM LAKE  N/A         17  13  84  CALM    30.43F
#GLENWOOD       N/A         17  12  80  CALM    30.47F
#NELSON 3SW     N/A         12  10  91  CALM    30.67F
#NILE           N/A         13   9  84  SE3     29.65F
#RONALD 2NW     N/A         19  N/A N/A S1      30.06F
#TEANAWAY 4NE   N/A         15   9  77  CALM    N/A
#TROUT LAKE 1NE N/A         17  12  80  CALM    30.46F
#TROUT LAKE 1E  N/A         18  13  80  CALM    30.31F
$$

WAZ521-162310-
SIMCOE HIGHLANDS

CITY            SKY/WX      TMP DP  RH  WIND    PRES   REMARKS
#CENTERVILLE 1SWN/A         11   7  83  CALM    30.47F
#GOLDENDALE 1NE N/A         12   2  63  SE2     N/A
#GOLDENDALE 4W  N/A         15  -20 19  CALM    30.35F
#GOODNOE HILLS  N/A         19   5  54  E3      N/A
#LYLE 6NE       N/A         18  11  74  CALM    30.45F
#PITT 4SE       N/A         13   9  84  CALM    30.52F
$$

WAZ026-162310-
KITTITAS VALLEY

CITY            SKY/WX      TMP DP  RH  WIND    PRES   REMARKS
ELLENSBURG AP   CLOUDY      17   8  67  SE6     30.32F
#ELLENSBURG CWU N/A         16   9  73  E6      30.41F
#ELLENSBURG 3NE N/A         14   9  80  S2      28.38F
#ELLENSBURG 1E  N/A         17  N/A N/A CALM    N/A
#KITTITAS 4N    N/A         17  11  77  CALM    30.31F
#KITTITAS 3S    N/A         15  10  80  CALM    30.45F
#THORP 6N       N/A         11   8  87  E7      30.48F
$$

WAZ027-162310-
YAKIMA VALLEY

CITY            SKY/WX      TMP DP  RH  WIND    PRES   REMARKS
SUNNYSIDE AP    LGT SNOW    15   8  73  CALM    30.44F
YAKIMA AIRPORT  CLOUDY      18   9  67  SE6     30.40F HAZE
YAKIMA-VAGABOND LGT SNOW    14   9  80  S6      30.34F
#DONALD 2NE     N/A         21  -4  32  E1      29.23
#MABTON         N/A         17  12  80  E3      30.44F
#MOXEE 2E       N/A         17   0  46  CALM    30.38F
#NACHES 2SW     N/A         16  11  80  E2      30.32F
#TERRACE HTS    N/A         16  11  80  CALM    30.47F
#TOPPENISH      N/A         17  11  77  CALM    30.41F
#WEST VALLEY    N/A         16  10  77  CALM    30.47F
#W YAKIMA       N/A         15  10  80  CALM    30.48F
#WHITE SWAN 5E  N/A         14  11  88  CALM    30.51F
#WILEY CITY 3W  N/A         18   8  64  CALM    30.32F
$$

WAZ028-162310-
LOWER COLUMBIA BASIN...WASHINGTON

CITY            SKY/WX      TMP DP  RH  WIND    PRES   REMARKS
PASCO           CLOUDY      16  11  80  N5      30.51F HAZE
PROSSER AWOS    N/A         14  10  84  SE7     30.48F
RICHLAND AWOS   LGT SNOW    18  11  74  E6      30.49F
#BENTON CITY    N/A         15  10  80  NE2     30.42F
#CONNELL 5N     N/A         11   5  76  N2      30.53F
#CONNELL 5NW    N/A         12  -9  37  CALM    30.49F
#ELTOPIA 6NW    N/A         17  10  73  CALM    29.39F
#KAHLOTUS       N/A         10   6  83  NW7     30.54F
#KENNEWICK 3S   N/A         19  13  77  CALM    30.55S
#PATERSON       N/A         18  12  77  S1      30.51F
#SAGEMOOR 2W    N/A         14   8  76  CALM    30.37S
#TOUCHET 2S     N/A         17  12  80  CALM    30.53F
#WEST PASCO     N/A         18  13  80  E1      30.54F
$$

WAZ029-162310-
FOOTHILLS OF THE BLUES...WASHINGTON

CITY            SKY/WX      TMP DP  RH  WIND    PRES   REMARKS
WALLA WALLA AP  SUNNY       11   7  83  CALM    30.41F
#CLYDE 6NW      N/A         12   8  84  CALM    30.53F
#DAYTON SCHOOL  N/A         12   2  63  SE2     30.37F
#LOWDEN 2SE     N/A         17  12  80  CALM    30.46F
#PLEASANT VIEW 1N/A         10   6  83  SW1     30.59F
#PRESCOTT       N/A         15  10  80  CALM    30.53F
#WHITMAN COLLEGEN/A         13   9  84  E5      30.59F
#WAITSBURG 5S   N/A         12   8  84  CALM    30.63F
#WAITSBURG 8N   N/A         23  N/A N/A S1      30.21F
#WALLA WALLA 5E N/A         21  12  68  CALM    N/A
#WHITMAN MISSIONN/A         16  13  88  CALM    30.54F
$$

WAZ030-162310-
BLUE MOUNTAINS...WASHINGTON

CITY            SKY/WX      TMP DP  RH  WIND    PRES   REMARKS
#DIXIE 5SE      N/A          9   6  87  N5      30.12F
#SKI BLUEWOOD   N/A         35  27  72  S2      30.14F
$$

ORZ009-041-WAZ024-162310-
COLUMBIA RIVER GORGE

CITY            SKY/WX      TMP DP  RH  WIND    PRES   REMARKS
HOOD RIVER AP   PTCLDY      19   9  64  E9      30.42F
THE DALLES AP   PTCLDY      19  11  70  CALM    30.47F
#ARLINGTON AIRPON/A         16  14  92  CALM    30.52F
#ARLINGTON HS   N/A         17  10  73  S1      30.41F
#CELILO DOT     N/A         18   7  61  CALM    N/A
#LYLE           N/A         19  13  77  SE9     30.50F
#MOSIER 1S      N/A         18   0  44  CALM    30.35F
#MURDOCK        N/A         19  13  77  SE2     30.46F
#RUFUS DOT      N/A         16  11  80  S6      N/A
#SMITHVILLE     N/A         18  13  80  N2      30.44F

$$

ORZ510-162310-
NORTH CENTRAL OREGON

CITY            SKY/WX      TMP DP  RH  WIND    PRES   REMARKS
#ANTELOPE       N/A         15   8  73  W3      30.43F
#CHENOWITH 1W   N/A         15  14  96  E6      N/A
#COW CYN RST AREN/A         18  N/A N/A NE2     N/A
#DUFUR 9E       N/A         10   7  87  SE5     30.55F
#GRASS VALLEY 1SN/A         12   9  87  CALM    30.19F
#KENT DOT       N/A         13   6  73  CALM    N/A
#MAUPIN SCHOOL  N/A         14   4  64  CALM    30.42F
#SHANIKO 5WSW   N/A         16   9  73  N2      N/A
#SHANIKO 4NW    N/A         21  15  77  S3      30.16F
#TYGH VALLEY 2NEN/A         13   5  70  CALM    30.51F
#WAPANITIA AIRPON/A         12   6  76  CALM    30.55F
#WASCO DOT      N/A         15   7  70  NE1     N/A
#WASCO 5NE      N/A         16  12  84  CALM    30.52F
$$

ORZ511-162310-
CENTRAL OREGON

CITY            SKY/WX      TMP DP  RH  WIND    PRES   REMARKS
BEND AIRPORT    SUNNY       36  19  50  E5      30.17F
MADRAS AIRPORT  SUNNY        7   3  83  CALM    30.29F
PRINEVILLE AP   SUNNY       34  19  54  CALM    30.18F
REDMOND AIRPORT SUNNY       21  11  65  N3      30.20F
#ASHWOOD SCHOOL N/A         20  12  71  CALM    30.17F
#BEND 1SW       N/A         37  32  82  CALM    N/A
#BEND-AWBREY    N/A         32  28  85  CALM    30.33F
#BEND-KIM LN    N/A         25  23  92  CALM    30.38F
#CULVER         N/A         10   6  83  CALM    30.44F
#CULVER 8W      N/A         14   3  61  CALM    30.20F
#LAKE BILLY CHINN/A         14  N/A N/A CALM    30.34F
#MADRAS 4S      N/A         12  -20 21  CALM    30.30F
#POWELL BUTTE   N/A         28  11  48  N1      30.11F
#PRINEVILLE 3N  N/A         23  16  74  CALM    30.45F
#WARM SPRINGS   N/A         11   5  76  CALM    30.29F

$$


ORZ509-162310-
EAST SLOPES OF OREGON CASCADES

CITY            SKY/WX      TMP DP  RH  WIND    PRES   REMARKS
SISTERS AWOS    N/A         30  25  81  CALM    30.13F
#CAMP SHERMAN   N/A         30  23  75  CALM    30.44F
#LA PINE 4NW    N/A         38  27  64  CALM    30.46F
#LAVA BUTTE DOT N/A         36  19  50  CALM    N/A
#SISTERS ODOT   N/A         27  N/A N/A CALM    N/A
#SISTERS 3N     N/A         N/A N/A N/A S1      N/A
#SUNRIVER       N/A         36  31  82  SE1     30.16F
#TUMALO 3W      N/A         32  28  85  CALM    30.24F
#WANOGA BUTTE D N/A         42  19  39  W7      N/A

$$

ORZ044-162310-
LOWER COLUMBIA BASIN...OREGON

CITY            SKY/WX      TMP DP  RH  WIND    PRES   REMARKS
HERMISTON       SUNNY       17   8  67  CALM    30.48S
#BOARDMAN SCHOOLN/A         17  12  80  S1      30.49F
#ECHO 8SW       N/A         19   9  64  E1      30.47F
#I-84 EX 198 DOTN/A         15   7  70  NE3     N/A
#UMATILLA       N/A         19   9  64  SE2     30.47F
$$

ORZ507-162310-
NORTHERN FOOTHILLS OF THE BLUES

CITY            SKY/WX      TMP DP  RH  WIND    PRES   REMARKS
PENDLETON AIRPT MOSUNNY     11   6  80  CALM    30.38F
#ADAMS 3WNW     N/A         12   7  80  CALM    30.54F
#ATHENA         N/A         12   7  80  CALM    30.56F
#CAYUSE         N/A         12   7  80  NE2     30.53F
#HELIX SCHOOL   N/A         13   8  80  CALM    30.54F
#HELIX 3N       N/A         12   9  87  CALM    30.29F
#HOLDMAN 5SE    N/A         13   9  84  CALM    30.38R
#HOLDMAN 6E     N/A         14   8  76  CALM    30.33S
#M-F GROVE ELEM N/A         14   5  67  CALM    30.39F
#PENDLETON DNTN N/A         18   8  64  CALM    30.42F
#PDT AQUATIC CTRN/A         16   7  67  CALM    30.43S
#PDT SUNRIDGE   N/A         14   6  70  SE2     30.42F
#PENDLETON 7NW  N/A         16   6  64  CALM    N/A
#PILOT ROCK 1S  N/A         11   2  66  CALM    30.35S
#PILOT ROCK     N/A         14   7  73  W3      30.37R
#TUTUILLA       N/A         13   7  76  CALM    30.50F
#WESTON SCHOOL  N/A         11   3  69  E1      30.21F

$$

ORZ508-162310-
SOUTHERN FOOTHILLS OF THE BLUES

CITY            SKY/WX      TMP DP  RH  WIND    PRES   REMARKS
LEXINGTON       SUNNY       12   7  80  CALM    30.38F
#AJAX           N/A         11   0  60  N1      28.03F
#CONDON SCHOOL  N/A         13  11  91  NE3     30.15F
#CONDON 5W      N/A         11   7  83  W3      30.13F
#FOSSIL SCHOOL  N/A         17  10  73  CALM    30.16F
#HEPPNER EOC    N/A         12   6  76  S1      30.47F
#HEPPNER 4NE    N/A          9   5  83  SW3     30.55F
#LEXINGTON 2SE  N/A         18   8  64  CALM    30.32F
#MIKKALO        N/A         17   5  58  NE1     30.45F
#OLEX 4N        N/A         14  10  84  CALM    30.37F
#RUGGS 5NE      N/A         20   5  51  S1      30.40S
#RUGGS 2SW      N/A          8   5  87  CALM    30.56F

$$

ORZ502-503-162310-
BLUE MOUNTAINS

CITY            SKY/WX      TMP DP  RH  WIND    PRES   REMARKS
MEACHAM         SUNNY       26  12  55  CALM    30.18F
#BATTLE MTN DOT N/A         28  14  55  S8      N/A
#GREENHORN 9SW  N/A         36  22  56  E2      30.13F
#HEPPNER 15SE   N/A         39  28  64  CALM    30.28F
#LADD CYN SMT   N/A          6   1  79  SE10    N/A
#LADD CREEK ODOTN/A         11   3  69  SW10    N/A
#LONG CREEK HS  N/A         26  24  92  CALM    N/A
#N POWDER DOT   N/A         11  -4  50  CALM    N/A
#PIKES PEAK     N/A         23  16  74  NE2     27.99S
#TOLLGATE       N/A         25  20  81  S2      29.99S
#TROY SCHOOL    N/A         17  11  77  W1      30.36F
#UKIAH          N/A         14   8  76  CALM    30.48F
#WESTON 4E      N/A         16  13  88  CALM    30.42F
$$

ORZ505-162310-
JOHN DAY BASIN

CITY            SKY/WX      TMP DP  RH  WIND    PRES   REMARKS
JOHN DAY        SUNNY       34  22  61  CALM    30.20F
#JOHN DAY KJDY  N/A         30  N/A N/A CALM    31.90F
#ANTELOPE 9ESE  N/A         15   7  70  E3      N/A
#DAYVILLE SCHOOLN/A         30  15  53  CALM    30.20F
#MITCHELL       N/A         19  14  80  CALM    30.37F
#MITCHELL 8NW   N/A         26  21  81  CALM    30.22F
#MONUMENT HS    N/A         26  12  55  CALM    30.38F
#MT. VERNON 5SE N/A         34  23  64  CALM    30.13F
#SPRAY SCHOOL   N/A         23  N/A N/A CALM    N/A
$$

ORZ506-162310-
OCHOCO AND JOHN DAY HIGHLANDS

CITY            SKY/WX      TMP DP  RH  WIND    PRES   REMARKS
#HORSE RIDGE DO N/A         31  20  63  SE16    N/A    WCI 20
#KEYES SMT DOT  N/A         31  21  66  NE2     N/A
#PAULINA SCHOOL N/A         19  10  67  NE3     N/A
#PINE MTN OBS   N/A         40  14  34  SE9     N/A
#SENECA         N/A         11  N/A N/A W1      N/A
#SENECA 9NW     N/A         24  17  74  CALM    30.61F
$$

ORZ049-162310-
GRANDE RONDE VALLEY

CITY            SKY/WX      TMP DP  RH  WIND    PRES   REMARKS
LA GRANDE       SUNNY       12  10  91  N14     30.30F WCI -4
#COVE           N/A         16   9  73  N3      30.32F
#COVE 6NW       N/A         15   9  77  E7      30.64F
#ELGIN 3N       N/A         15  -2  46  CALM    30.28F
#ELGIN 1E       N/A         18   8  64  CALM    N/A
#IMBLER SCHOOL  N/A         14   8  76  S12G25  30.26F WCI  0
#ISLAND CITY 4N N/A         33  25  72  CALM    30.19F
#UNION 1S       N/A         13   8  80  S20G35  30.60F WCI -5
$$

ORZ050-162310-
WALLOWA COUNTY

CITY            SKY/WX      TMP DP  RH  WIND    PRES   REMARKS
JOSEPH AIRPORT  SUNNY       16   9  73  CALM    30.22F
#IMNAHA SCHOOL  N/A         23  18  81  NW7     30.30F
#IMNAHA 10S     N/A         24  18  77  CALM    30.22F
#JOSEPH 3N      N/A         11   4  73  CALM    30.22F
#JOSEPH 3W      N/A         12   2  63  CALM    30.24F
#LOSTINE        N/A         16   9  73  CALM    30.45F
#LOSTINE 3SE    N/A         15   8  73  CALM    30.30F
#MT HOWARD 8000 N/A         40  -14  9  SW2     30.13F
#PROMISE 1S     N/A         22  13  68  S5      30.59F
#WALLOWA SCHOOL N/A          7   0  72  CALM    30.26F



$$



USA.gov is the U.S. government's official web portal to all federal, state and local government web resources and services.